Hoonah, AK

5:50 PM AKDT on May 24, 2017 (GMT -0800)
Hoonah

Weather History for PAOH - October, 2014

Change the Weather History Date:

Wednesday, October 8, 2014

  Actual Average Record
Temperature  
Mean Temperature 39 °F -  
Max Temperature 45 °F 47 °F 55 °F (2001)
Min Temperature 33 °F 37 °F 27 °F (2016)
Degree Days  
Heating Degree Days 26    
Moisture  
Dew Point 38 °F    
Average Humidity 97    
Maximum Humidity 100    
Minimum Humidity 80    
Precipitation  
Precipitation 0.00 in - - ()
Sea Level Pressure  
Sea Level Pressure 29.99 in    
Wind  
Wind Speed 1 mph (East)    
Max Wind Speed 8 mph    
Max Gust Speed -    
Visibility 8 miles    
Events Fog    
Averages and records for this station are not official NWS values.
T = Trace of Precipitation, MM = Missing Value Source: NWS Daily Summary

Daily Weather History Graph

Daily Weather History Graph

Search for Another Location

Airport or City:

Trip Planner

Search our weather history database for the weather conditions in past years. The results will help you decide how hot, cold, wet, or windy it might be!

Date:

Astronomy

Oct. 08, 2014 Rise Set
Actual Time 7:21 AM AKDT 6:15 PM AKDT
Civil Twilight 6:42 AM AKDT 6:54 PM AKDT
Nautical Twilight 5:56 AM AKDT 7:40 PM AKDT
Astronomical Twilight 5:09 AM AKDT 8:26 PM AKDT
Moon 6:24 PM AKDT (10/8) 7:42 AM AKDT (10/8)
Length of Visible Light 12h 12m
Length of Day
10h 53m
Full, 100% of the Moon is Illuminated
Oct 8
Full
Oct 15
Last Quarter
Oct 23
New
Oct 30
First Quarter
Nov 6
Full

Hourly Weather History & Observations

Time (AKDT) Temp. Windchill Dew Point Humidity Pressure Visibility Wind Dir Wind Speed Gust Speed Precip Events Conditions
12:43 AM 39.2 °F - 39.2 °F 100% 30.01 in 10.0 mi Calm Calm - N/A   Overcast
12:56 AM 39.9 °F - 39.9 °F 100% 30.01 in 10.0 mi Calm Calm - N/A   Overcast
1:20 AM 39.2 °F - 39.2 °F 100% 30.01 in 10.0 mi Calm Calm - N/A   Overcast
1:38 AM 39.2 °F - 39.2 °F 100% 30.01 in 10.0 mi Calm Calm - N/A   Overcast
1:56 AM 39.9 °F - 39.9 °F 100% 30.02 in 10.0 mi Calm Calm - N/A   Overcast
2:10 AM 39.2 °F - 39.2 °F 100% 30.01 in 10.0 mi Calm Calm - N/A   Overcast
2:56 AM 38.8 °F - 38.8 °F 100% 30.02 in 8.0 mi Calm Calm - N/A   Overcast
3:13 AM 37.4 °F - 37.4 °F 100% 30.02 in 8.0 mi Calm Calm - N/A   Overcast
3:56 AM 37.4 °F - 37.4 °F 100% 30.02 in 10.0 mi Calm Calm - N/A   Overcast
4:56 AM 37.9 °F - 37.9 °F 100% 30.02 in 10.0 mi Calm Calm - N/A   Mostly Cloudy
5:56 AM 36.9 °F 34.3 °F 36.9 °F 100% 30.01 in 7.0 mi SE 3.5 mph - N/A   Mostly Cloudy
6:21 AM 35.6 °F - 35.6 °F 100% 30.01 in 10.0 mi Calm Calm - N/A   Mostly Cloudy
6:56 AM 35.6 °F - 35.6 °F 100% 30.01 in 3.0 mi Calm Calm - N/A   Mostly Cloudy
7:17 AM 35.6 °F - 35.6 °F 100% 30.01 in 1.8 mi Calm Calm - N/A   Mostly Cloudy
7:22 AM 35.6 °F - 35.6 °F 100% 30.01 in 1.0 mi Calm Calm - N/A   Mostly Cloudy
7:27 AM 35.6 °F - 35.6 °F 100% 30.01 in 0.5 mi Calm Calm - N/A Fog Fog
7:35 AM 35.6 °F - 35.6 °F 100% 30.00 in 1.0 mi Calm Calm - N/A   Overcast
7:42 AM 35.6 °F - 35.6 °F 100% 30.01 in 1.5 mi Calm Calm - N/A   Mostly Cloudy
7:56 AM 34.0 °F - 34.0 °F 100% 30.01 in 10.0 mi Calm Calm - N/A   Mostly Cloudy
8:28 AM 33.8 °F - 33.8 °F 100% 30.02 in 10.0 mi Calm Calm - N/A   Scattered Clouds
8:56 AM 34.9 °F - 34.9 °F 100% 30.02 in 10.0 mi Calm Calm - N/A   Mostly Cloudy
9:23 AM 37.4 °F - 37.4 °F 100% 30.02 in 10.0 mi Calm Calm - N/A   Overcast
9:56 AM 39.2 °F - 39.2 °F 100% 30.03 in 10.0 mi Calm Calm - N/A   Overcast
10:56 AM 43.9 °F 42.3 °F 41.0 °F 90% 30.04 in 10.0 mi West 3.5 mph - N/A   Overcast
11:56 AM 45.0 °F 41.2 °F 41.9 °F 89% 30.02 in 10.0 mi ENE 6.9 mph - N/A   Overcast
12:56 PM 45.0 °F 42.6 °F 41.0 °F 86% 30.01 in 10.0 mi East 4.6 mph - N/A   Mostly Cloudy
1:56 PM 45.9 °F 41.7 °F 41.0 °F 83% 30.00 in 10.0 mi East 8.1 mph - N/A   Clear
2:56 PM 45.9 °F 41.7 °F 39.9 °F 80% 29.99 in 10.0 mi East 8.1 mph - N/A   Overcast
3:56 PM 45.9 °F 42.3 °F 39.9 °F 80% 29.99 in 10.0 mi East 6.9 mph - N/A   Clear
4:56 PM 45.0 °F 43.5 °F 41.0 °F 86% 29.97 in 10.0 mi East 3.5 mph - N/A   Clear
5:56 PM 43.0 °F 40.3 °F 41.9 °F 96% 29.96 in 10.0 mi East 4.6 mph - N/A   Partly Cloudy
6:56 PM 41.9 °F 39.0 °F 41.9 °F 100% 29.94 in 10.0 mi East 4.6 mph - N/A   Partly Cloudy
7:56 PM 41.0 °F 37.1 °F 41.0 °F 100% 29.93 in 10.0 mi East 5.8 mph - N/A   Partly Cloudy
8:56 PM 39.9 °F 36.7 °F 39.9 °F 100% 29.91 in 10.0 mi East 4.6 mph - N/A   Partly Cloudy
9:56 PM 38.8 °F - 38.8 °F 100% 29.90 in 10.0 mi Calm Calm - N/A   Clear
10:56 PM 36.9 °F - 36.9 °F 100% 29.89 in 10.0 mi Calm Calm - N/A   Partly Cloudy
11:56 PM 36.0 °F - 36.0 °F 100% 29.86 in 10.0 mi Calm Calm - N/A   Clear